Temperature
19 19 19 18 18 18 18 18 17 17 17 17 17 17 17 16 16 16 16 16 16 16 16 16 16 16 16 16 15 15 15 15 15 15 15 15 15 14 14 14 14 14 14
19 19 19 18 18 18 18 18 18 17 17 17 17 17 17 17 16 16 16 16 16 16 16 16 16 16 16 16 15 15 15 15 15 15 15 14 14 14 14 14 14 14 14
19 19 19 19 19 18 18 18 18 18 17 17 17 17 17 16 16 16 16 16 16 16 16 16 16 16 16 15 15 15 15 15 15 15 15 15 14 14 14 14 14 14 14
19 19 19 19 19 19 19 18 18 18 17 17 17 17 17 16 16 16 16 16 16 16 16 15 15 16 15 15 15 15 15 15 15 15 15 15 14 14 14 14 14 14 14
19 19 19 19 19 19 19 18 18 18 17 17 17 17 16 16 16 16 16 16 16 16 15 15 15 15 15 15 15 15 15 15 15 15 15 15 14 14 14 14 14 14 13
19 19 19 19 19 19 19 18 18 18 18 17 17 17 16 16 16 16 16 16 16 16 15 15 15 15 15 15 15 15 15 15 15 15 15 14 14 14 14 14 13 13 13
19 19 19 19 19 19 19 18 18 18 18 17 17 17 17 16 16 16 16 16 16 16 15 15 15 15 15 15 15 15 15 15 14 14 14 14 14 14 14 13 13 13 13
19 19 19 19 19 19 19 18 18 18 18 17 17 17 17 16 16 16 16 16 16 16 15 15 15 15 15 15 15 15 14 14 14 14 14 14 14 14 14 13 13 13 13
19 19 19 19 19 19 19 18 18 18 18 17 17 17 17 16 16 16 16 16 16 15 15 15 15 15 15 14 14 14 14 14 14 14 14 14 13 13 13 13 13 13 12
19 19 19 19 19 19 19 18 18 18 18 17 17 17 17 16 16 16 16 16 16 15 15 15 15 15 15 14 14 14 14 14 14 14 13 13 13 13 13 13 13 13 12
19 19 19 19 19 19 19 18 18 18 18 17 17 17 17 16 16 16 16 16 15 15 15 15 15 15 14 14 14 14 14 14 14 13 13 13 13 13 13 13 12 12 12
18 19 19 19 18 18 18 18 18 18 17 17 17 17 17 16 16 16 16 16 15 15 15 15 15 15 14 14 14 14 14 13 13 13 13 13 13 13 13 12 12 12 12
18 18 18 18 18 18 18 18 18 18 17 17 17 17 16 16 16 16 16 15 15 15 15 15 15 14 14 14 14 13 13 13 13 13 13 13 13 13 12 12 12 12 12
18 18 18 18 18 18 18 18 18 18 17 17 17 17 16 16 16 15 15 15 15 15 15 14 14 14 14 14 13 13 13 13 13 13 13 12 12 12 12 12 12 11 11
17 17 17 18 18 18 18 18 17 17 17 17 17 16 16 16 15 15 15 15 15 14 14 14 14 14 14 13 13 13 13 13 13 12 12 12 12 12 12 11 11 11 11
17 17 17 17 17 17 17 17 17 17 17 17 16 16 16 16 15 15 15 15 14 14 14 14 14 13 13 13 13 13 12 12 12 12 12 12 12 12 11 11 11 11 11
17 17 17 17 17 17 17 17 17 17 16 16 16 16 16 15 15 15 15 14 14 14 14 14 13 13 13 13 12 12 12 12 12 12 12 12 11 11 11 11 11 11 10
16 16 16 16 17 17 16 16 16 16 16 16 16 16 15 15 15 15 14 14 14 14 14 13 13 13 13 12 12 12 12 12 12 11 11 11 11 11 11 11 10 10 10
17 16 16 17 16 16 16 16 16 16 16 16 16 15 15 15 15 14 14 14 14 14 13 13 13 13 12 12 12 12 11 11 11 11 11 11 10 10 10 10 10 10 10
16 16 16 16 16 16 16 16 16 16 16 15 15 15 15 15 14 14 14 14 13 13 13 13 13 12 12 12 12 11 11 11 11 11 10 10 10 10 9 9 9 9 9
16 16 16 16 16 15 15 15 15 15 15 15 15 15 14 14 14 14 14 13 13 13 13 13 13 12 12 12 11 11 11 11 10 10 10 10 10 9 9 9 9 9 8
16 16 16 15 15 15 15 15 15 15 15 15 14 14 14 14 14 14 13 13 13 13 12 12 12 12 12 11 11 11 10 10 10 10 10 10 9 9 9 9 8 8 8
15 15 15 15 15 14 14 14 14 14 14 14 14 14 14 14 13 13 13 13 13 12 12 12 12 11 11 11 11 10 10 10 10 10 9 9 9 9 8 8 8 8 7
14 14 14 14 14 14 14 14 14 14 14 14 14 14 13 13 13 13 13 12 12 12 12 11 11 11 11 11 10 10 10 10 9 9 9 9 8 8 8 8 8 7 7
14 14 14 14 14 13 13 13 13 13 13 13 13 13 13 13 13 12 12 12 12 12 11 11 11 11 10 10 10 10 10 9 9 9 9 8 8 8 8 8 7 7 7
14 14 13 13 13 13 13 13 13 13 13 13 13 13 12 12 12 12 12 11 11 11 11 11 10 10 10 10 10 9 9 9 9 8 8 8 8 8 7 7 7 7 6
Wind_Speed
5 3 5 5 4 4 5 5 5 4 4 3 2 2 1 0 1 1 2 3 3 4 5 3 3 3 3 3 3 3 4 3 2 3 4 4 4 4 4 4 4 5 6
4 4 5 5 6 6 6 6 6 6 5 3 3 2 2 1 1 1 2 2 3 4 3 3 3 3 3 3 3 3 3 2 2 3 3 2 4 3 4 3 3 3 5
7 6 5 6 6 6 7 7 6 6 5 4 3 3 3 3 2 1 1 1 2 3 3 3 3 3 3 3 2 3 4 2 2 2 3 3 1 2 3 3 3 3 3
6 6 6 7 7 7 6 6 6 6 5 6 5 5 3 2 2 1 1 1 2 2 3 3 3 3 2 3 2 3 3 4 2 1 2 2 3 2 1 3 3 3 3
6 7 7 8 7 6 6 6 5 4 5 5 6 5 3 2 1 1 1 1 1 2 2 3 3 3 2 2 2 3 3 2 3 2 2 2 2 2 2 1 3 3 3
5 5 5 4 4 4 5 5 6 4 4 5 5 6 5 4 3 2 1 0 0 1 1 2 3 3 3 3 3 3 3 2 3 2 2 2 2 2 2 2 1 2 3
4 4 4 4 5 5 6 5 6 4 4 5 5 5 5 5 5 4 3 2 1 0 1 2 2 2 2 3 4 3 3 2 3 2 2 1 1 2 3 3 1 0 2
3 4 5 5 5 6 6 6 6 5 5 5 4 4 4 4 3 3 3 3 2 2 2 2 3 3 3 3 4 3 3 2 2 2 2 1 1 2 3 3 3 1 2
3 4 4 4 5 6 7 8 7 6 5 5 5 4 3 4 3 3 3 2 2 2 2 3 3 3 3 3 4 3 2 2 2 2 2 1 1 1 1 2 3 4 1
3 3 3 4 4 5 5 6 7 7 6 5 5 4 4 4 3 3 3 2 2 2 3 3 3 3 3 3 3 2 2 3 1 2 2 1 1 1 1 2 1 2 3
3 4 4 4 4 4 4 5 5 5 5 5 5 4 4 3 3 3 3 2 2 3 3 3 3 3 2 3 3 2 3 3 1 1 2 1 1 1 1 2 2 2 2
3 3 3 3 3 4 4 5 5 5 5 5 5 5 4 3 3 3 2 2 2 2 3 3 3 3 2 3 4 3 3 3 2 2 2 1 1 1 1 2 2 2 2
2 2 2 2 3 3 4 4 4 5 5 5 5 5 4 4 4 3 3 3 3 2 2 3 3 3 3 3 3 3 3 3 3 2 2 2 2 2 1 1 1 1 1
2 2 2 2 2 3 3 4 4 4 5 5 5 5 5 5 4 3 3 3 3 3 3 2 3 3 3 3 3 3 3 2 2 2 2 2 3 3 3 2 2 2 2
1 2 3 2 2 2 2 3 3 4 5 5 5 5 5 4 4 3 3 3 3 3 3 3 2 2 2 3 3 3 3 3 2 1 1 2 2 2 2 2 2 3 2
2 2 2 2 3 3 3 3 3 4 5 5 5 5 5 4 4 4 3 3 3 2 3 3 2 2 2 3 5 5 4 3 3 1 1 1 1 1 1 2 2 4 4
2 3 3 4 4 4 4 4 4 3 5 5 4 5 6 5 5 5 4 4 3 3 3 2 2 2 3 3 4 5 4 3 2 2 1 0 0 1 0 0 1 1 2
3 3 2 3 3 3 3 3 4 4 4 4 4 5 5 6 5 5 5 4 3 3 3 2 3 2 2 3 4 5 4 2 2 2 2 2 2 1 1 1 1 1 2
3 3 3 3 2 3 3 3 3 4 3 4 4 5 6 6 6 6 5 4 4 4 3 3 3 3 3 3 4 5 3 2 1 1 1 2 2 2 1 2 1 1 2
1 1 1 1 2 2 3 4 4 4 5 5 5 4 5 6 7 7 5 4 4 4 4 3 3 3 3 3 4 5 3 2 1 0 1 1 2 2 1 3 2 2 2
1 2 2 1 2 2 3 4 4 5 5 4 3 3 4 5 6 5 4 4 4 4 3 3 2 2 2 3 4 5 4 4 2 1 1 2 2 2 1 2 3 4 2
1 2 2 1 0 2 4 4 4 4 3 3 3 3 3 4 4 5 4 4 5 5 4 3 1 1 1 2 3 4 4 3 3 2 2 2 2 2 2 2 2 2 1
1 2 2 1 1 1 4 5 4 3 3 4 3 3 3 3 4 5 5 4 4 4 4 3 2 1 1 2 3 3 3 3 2 2 2 1 1 1 1 1 2 1 1
2 2 2 1 1 1 2 3 3 3 4 4 4 3 3 3 3 3 4 4 4 4 4 4 3 2 1 2 2 2 2 2 2 1 0 0 1 0 0 1 1 1 2
2 2 3 3 2 2 2 2 2 4 4 4 4 3 3 3 3 3 3 4 4 5 5 5 5 4 4 4 5 4 3 3 2 2 1 1 1 0 1 1 1 1 1
2 2 2 2 2 1 1 1 1 3 4 4 4 3 3 3 3 3 1 1 1 2 3 4 4 3 4 3 4 4 4 3 4 2 1 1 2 2 2 2 2 2 2
Wind_Direction
241 222 198 185 172 166 170 170 160 154 138 121 123 116 115 78 52 63 94 113 123 130 130 122 115 116 118 123 118 106 87 67 75 81 49 26 34 44 38 36 40 35 32
223 205 191 183 183 184 184 179 176 170 169 155 144 142 133 112 97 54 60 94 117 125 134 132 131 126 124 121 119 115 106 72 60 107 92 28 360 6 25 27 38 28 32
212 209 195 193 189 191 190 187 184 178 173 152 119 94 71 52 45 34 5 14 108 113 121 134 132 134 139 145 146 135 132 130 59 72 131 135 216 318 349 9 23 18 22
207 201 195 198 198 202 191 182 177 177 169 155 150 148 150 161 197 191 209 27 80 97 122 135 133 132 136 146 159 141 143 140 137 79 67 122 150 141 339 343 359 9 17
200 198 199 201 200 193 182 177 168 171 168 165 164 157 157 170 151 122 107 48 44 77 114 139 132 128 132 142 140 131 137 138 147 146 130 99 77 102 140 295 330 352 352
194 197 195 183 186 175 169 164 161 168 168 166 166 167 169 165 150 159 162 119 29 38 86 128 129 128 128 145 145 137 131 124 122 126 134 146 148 165 151 181 277 319 319
182 184 180 181 184 177 174 169 165 170 168 163 170 176 176 171 175 183 179 173 169 203 220 130 127 124 130 129 121 121 125 123 120 130 135 144 162 155 149 150 180 313 319
178 189 195 191 190 185 178 172 173 174 167 164 172 174 173 170 177 178 173 182 192 203 188 145 133 128 124 117 113 114 127 123 129 130 130 125 152 146 150 155 148 114 349
196 195 193 190 187 184 185 180 178 175 174 172 166 160 164 164 171 171 167 179 185 174 151 140 134 123 114 114 116 112 124 124 134 140 134 123 122 141 149 143 150 152 173
206 202 194 194 190 187 184 175 177 178 175 169 170 168 169 175 169 147 156 172 173 148 133 133 135 131 124 122 121 117 115 122 131 134 126 119 102 117 125 140 140 146 164
205 204 198 192 177 162 162 167 172 167 163 169 168 156 162 163 149 152 175 179 161 142 141 151 148 148 147 136 133 141 137 142 140 127 136 157 127 121 123 121 121 131 141
190 190 183 164 154 160 168 172 172 170 175 171 161 164 162 153 151 167 178 162 152 147 153 139 137 147 151 148 156 160 156 160 164 172 153 180 128 131 128 134 149 164 170
151 145 145 156 168 172 175 173 171 175 170 158 157 161 162 162 174 185 172 154 150 145 134 130 146 158 155 153 164 161 157 165 175 173 170 188 146 153 158 152 161 176 158
152 148 160 169 174 168 169 169 172 169 161 157 161 169 181 184 188 183 165 163 155 152 152 156 162 158 152 151 153 147 145 151 163 175 182 188 176 190 184 176 185 155 137
148 175 180 169 162 159 166 167 170 168 164 158 169 183 185 181 172 168 164 158 152 158 156 149 146 145 150 157 153 150 149 152 152 168 213 211 196 207 194 189 183 157 152
189 194 184 177 181 184 184 176 172 177 167 170 185 181 168 164 167 171 161 150 151 150 143 153 158 165 177 168 159 149 153 157 160 176 245 277 238 245 236 230 196 170 173
216 216 206 204 206 208 195 190 187 170 168 175 180 176 172 171 178 171 156 162 167 157 154 168 166 183 203 180 164 157 149 158 177 189 197 264 358 31 111 17 348 235 218
238 237 226 226 223 211 203 185 160 160 170 176 179 178 175 176 171 164 169 177 172 167 172 177 185 192 214 192 172 160 142 150 182 202 201 195 239 223 156 133 56 336 313
228 227 217 221 207 201 191 163 162 163 169 188 192 187 180 176 172 176 184 183 174 178 182 179 184 191 227 203 179 152 146 152 203 232 201 196 225 239 176 146 177 297 319
233 199 167 119 179 206 172 164 174 178 198 208 203 190 180 179 183 185 184 178 175 184 179 181 191 191 213 207 179 159 151 158 186 280 284 249 248 265 211 174 181 227 268
192 157 140 128 201 187 164 172 181 205 212 196 178 172 178 183 182 175 174 166 161 157 161 168 190 196 204 198 180 165 164 175 182 202 252 260 260 269 256 215 203 223 221
127 140 146 124 182 174 167 181 207 217 182 159 159 170 174 176 173 164 166 160 154 153 158 158 168 236 218 188 193 187 186 175 178 210 228 237 243 253 255 237 224 213 140
177 162 158 135 46 199 185 199 220 191 158 151 163 169 163 161 160 165 165 158 160 165 172 170 183 224 230 219 210 201 193 186 191 210 218 236 242 250 259 237 222 185 163
203 174 152 154 263 266 224 218 206 177 159 160 164 158 149 146 149 154 161 166 172 174 178 182 192 204 213 215 197 190 184 177 181 187 148 44 25 35 329 346 289 226 201
214 189 184 196 231 270 259 235 194 166 161 155 157 156 156 155 155 159 171 181 192 188 188 197 191 188 211 223 201 177 180 180 176 138 99 93 96 77 335 324 289 234 221
206 201 201 199 227 271 291 256 179 159 154 151 158 160 157 157 153 147 115 77 184 191 190 182 182 207 218 210 193 190 184 175 152 121 159 199 212 222 233 243 266 262 244
Height
1533 1535 1537 1539 1541 1543 1544 1546 1547 1549 1550 1551 1552 1553 1553 1554 1554 1555 1555 1556 1556 1556 1556 1556 1557 1557 1557 1557 1558 1558 1558 1558 1559 1559 1559 1560 1559 1559 1559 1558 1558 1557 1556
1531 1533 1535 1537 1539 1541 1543 1545 1547 1548 1549 1551 1552 1553 1553 1554 1554 1555 1555 1556 1556 1556 1556 1556 1557 1557 1557 1557 1558 1558 1558 1559 1559 1559 1559 1560 1561 1560 1559 1559 1558 1558 1557
1529 1531 1533 1535 1538 1540 1541 1543 1545 1547 1549 1550 1551 1552 1553 1554 1554 1555 1555 1556 1556 1556 1556 1556 1557 1557 1557 1557 1558 1558 1558 1558 1559 1559 1560 1560 1560 1560 1560 1559 1559 1558 1557
1527 1529 1531 1533 1535 1538 1540 1542 1544 1546 1548 1549 1550 1551 1552 1552 1553 1554 1555 1555 1555 1556 1556 1556 1556 1557 1557 1557 1557 1558 1558 1558 1559 1559 1559 1560 1560 1560 1560 1560 1559 1558 1557
1524 1526 1528 1531 1533 1536 1538 1540 1543 1545 1546 1548 1549 1550 1551 1552 1553 1553 1554 1554 1555 1555 1555 1556 1556 1556 1556 1557 1557 1557 1558 1558 1558 1558 1558 1559 1559 1559 1559 1559 1559 1558 1557
1523 1525 1527 1530 1532 1534 1537 1539 1541 1543 1545 1546 1548 1549 1550 1551 1551 1552 1553 1553 1554 1554 1554 1555 1556 1556 1556 1556 1556 1557 1557 1557 1557 1558 1558 1558 1558 1558 1558 1558 1557 1557 1557
1521 1523 1526 1528 1530 1532 1535 1537 1539 1541 1543 1545 1546 1548 1549 1550 1550 1551 1552 1552 1552 1553 1554 1554 1554 1555 1555 1555 1555 1556 1556 1556 1556 1556 1557 1557 1557 1557 1557 1557 1556 1556 1556
1520 1522 1524 1526 1528 1530 1533 1535 1537 1539 1542 1543 1545 1546 1548 1548 1549 1550 1551 1551 1551 1552 1553 1553 1553 1554 1554 1554 1554 1555 1555 1555 1555 1555 1556 1556 1556 1556 1556 1556 1555 1555 1554
1519 1521 1523 1525 1527 1529 1531 1533 1536 1538 1540 1542 1543 1545 1546 1547 1548 1549 1549 1550 1550 1551 1551 1552 1552 1553 1553 1553 1553 1554 1554 1554 1554 1554 1554 1554 1554 1554 1554 1554 1554 1554 1553
1519 1520 1522 1524 1526 1528 1530 1532 1534 1536 1538 1540 1542 1543 1545 1546 1547 1548 1548 1549 1549 1550 1550 1551 1551 1551 1552 1552 1552 1552 1553 1553 1553 1553 1553 1553 1553 1553 1553 1553 1553 1552 1552
1517 1519 1521 1523 1525 1527 1529 1531 1532 1534 1536 1538 1540 1542 1543 1544 1545 1546 1547 1547 1548 1548 1549 1549 1550 1550 1550 1550 1551 1551 1551 1551 1552 1552 1552 1552 1551 1551 1551 1551 1551 1551 1550
1516 1518 1520 1522 1524 1525 1527 1529 1531 1533 1534 1536 1538 1540 1541 1543 1544 1544 1545 1546 1546 1547 1547 1548 1548 1548 1549 1549 1549 1549 1549 1550 1550 1550 1550 1550 1550 1550 1550 1549 1549 1549 1549
1516 1517 1519 1520 1522 1524 1526 1527 1529 1531 1533 1534 1536 1538 1539 1541 1542 1543 1544 1544 1545 1545 1546 1546 1547 1547 1547 1547 1548 1548 1548 1548 1548 1548 1548 1548 1548 1548 1548 1548 1547 1547 1547
1515 1517 1518 1519 1520 1522 1524 1526 1527 1529 1531 1532 1534 1535 1537 1538 1540 1541 1542 1542 1543 1543 1544 1544 1545 1545 1546 1546 1546 1546 1546 1546 1546 1546 1546 1546 1546 1546 1546 1545 1545 1545 1545
1515 1516 1517 1518 1519 1521 1522 1524 1526 1527 1529 1530 1531 1532 1534 1536 1537 1539 1540 1540 1541 1542 1542 1543 1543 1544 1544 1544 1544 1544 1544 1544 1544 1544 1544 1544 1544 1544 1543 1543 1543 1543 1542
1514 1515 1516 1517 1517 1519 1520 1522 1523 1525 1526 1528 1529 1531 1532 1534 1535 1536 1537 1538 1539 1540 1540 1541 1541 1542 1542 1542 1542 1542 1542 1542 1542 1542 1542 1542 1542 1541 1541 1541 1541 1540 1540
1513 1514 1514 1515 1516 1517 1518 1519 1521 1523 1524 1525 1527 1529 1530 1531 1533 1534 1535 1536 1537 1537 1538 1539 1539 1539 1540 1540 1540 1540 1540 1540 1540 1540 1540 1540 1539 1539 1539 1539 1538 1538 1537
1512 1512 1513 1513 1514 1515 1516 1517 1518 1520 1522 1523 1524 1526 1527 1528 1530 1531 1532 1533 1534 1535 1535 1536 1537 1537 1538 1538 1538 1538 1538 1538 1538 1538 1538 1537 1537 1537 1537 1536 1535 1535 1534
1510 1511 1511 1512 1512 1513 1514 1515 1516 1517 1518 1520 1521 1523 1524 1525 1526 1528 1529 1530 1531 1532 1533 1533 1534 1534 1535 1535 1535 1535 1535 1535 1535 1535 1535 1535 1535 1535 1534 1533 1532 1531 1531
1508 1509 1509 1510 1510 1511 1512 1512 1513 1514 1515 1517 1518 1520 1521 1522 1523 1525 1526 1527 1528 1529 1530 1531 1531 1532 1532 1532 1533 1533 1532 1532 1532 1532 1532 1532 1532 1532 1531 1530 1529 1528 1527
1506 1507 1507 1508 1508 1509 1509 1510 1510 1511 1513 1514 1516 1517 1518 1519 1520 1522 1523 1524 1526 1527 1527 1528 1528 1529 1529 1529 1530 1530 1530 1530 1530 1529 1529 1529 1529 1528 1528 1527 1526 1525 1524
1504 1505 1505 1506 1506 1506 1507 1507 1508 1509 1510 1511 1513 1514 1515 1516 1517 1518 1520 1521 1522 1523 1524 1524 1525 1526 1526 1526 1527 1527 1527 1527 1527 1526 1526 1526 1526 1525 1524 1523 1522 1522 1520
1502 1503 1503 1504 1504 1504 1504 1505 1506 1507 1507 1508 1510 1511 1512 1513 1514 1515 1516 1517 1518 1519 1520 1521 1521 1522 1523 1523 1524 1524 1524 1524 1524 1523 1523 1522 1522 1521 1520 1520 1519 1518 1516
1501 1501 1501 1501 1501 1502 1502 1502 1503 1504 1504 1505 1506 1508 1509 1509 1511 1512 1513 1514 1514 1515 1516 1517 1518 1518 1519 1520 1520 1520 1520 1520 1520 1520 1519 1519 1518 1517 1517 1516 1515 1514 1513
1499 1499 1499 1499 1499 1499 1499 1500 1500 1501 1502 1502 1503 1505 1506 1507 1508 1509 1510 1511 1512 1513 1514 1514 1515 1515 1515 1516 1517 1517 1517 1517 1516 1516 1515 1514 1514 1513 1512 1512 1511 1510 1509
1496 1496 1496 1497 1497 1497 1497 1497 1498 1498 1499 1500 1501 1502 1502 1504 1505 1506 1507 1508 1509 1510 1511 1511 1512 1512 1513 1513 1513 1513 1513 1513 1513 1512 1511 1510 1510 1509 1508 1508 1507 1506 1505